Regional Weather Roundup
Issued by NWS

Home | Current Version | Previous Version | Graphics & Text | Print | Product List | Glossary On
Versions: 1 2 3 4 5 6 7 8 9 10 11 12 13 14 15 16 17 18 19 20 21 22 23 24 25 26 27 28 29 30 31 32 33 34 35 36 37 38 39 40 41 42 43 44 45 46 47 48 49 50
000
ASUS43 KLOT 172210
RWRIL

ILLINOIS REGIONAL WEATHER ROUNDUP
NATIONAL WEATHER SERVICE CHICAGO/ROMEOVILLE IL
400 PM CST WED DEC 17 2014

NOTE: "FAIR" INDICATES FEW OR NO CLOUDS BELOW 12,000 FEET WITH NO
SIGNIFICANT WEATHER AND/OR OBSTRUCTIONS TO VISIBILITY.

* THESE STATIONS ARE NOT UNDER NWS QUALITY CONTROL. THEY ALSO MAY NOT
  REPORT WEATHER SUCH AS PRECIPITATION OR FOG.

ILZ001-002-007-009-015-016-024-172300-
NORTHWEST ILLINOIS

CITY           SKY/WX    TMP DP  RH WIND       PRES   REMARKS
MOLINE         CLEAR     28  15  58 NW12      30.28R WCI  18
STERLING*      MOCLDY    25  16  68 NW8       30.27R WCI  16
SAVANNA*       CLEAR     26  15  63 NW5       30.28R WCI  21
$$

ILZ003-004-008-010-011-017-018-172300-
NORTH CENTRAL ILLINOIS

CITY           SKY/WX    TMP DP  RH WIND       PRES   REMARKS
ROCKFORD       CLOUDY    25  15  66 W9        30.26R WCI  15
FREEPORT*      CLOUDY    22  16  77 W9        30.27R WCI  12
ROCHELLE*      CLOUDY    24  18  75 NW10      30.26R WCI  14
DE KALB*       CLOUDY    23  17  77 W10       30.24R WCI  12
PERU*          CLOUDY    28  20  73 NW9       30.28R WCI  19
$$

ILZ005-006-012>014-019>023-172300-
NORTHEAST ILLINOIS

CITY           SKY/WX    TMP DP  RH WIND       PRES   REMARKS
CHICAGO-OHARE  CLOUDY    26  16  65 NW12      30.23R WCI  16
CHICAGO-MIDWAY CLOUDY    28  17  63 W12       30.25R WCI  18
AURORA         CLOUDY    26  17  68 NW10      30.25R WCI  16
LANSING*       CLOUDY    27  18  69 W12       30.25R WCI  16
JOLIET*        CLOUDY    26  18  71 W9        30.26R WCI  17
WAUKEGAN       CLOUDY    25  15  66 NW9       30.21R WCI  15
DUPAGE AIRPORT CLOUDY    26  16  65 NW9       30.23R WCI  17
KANKAKEE*      CLOUDY    27  21  78 W13       30.27R WCI  16
WHEELING       CLOUDY    26  16  65 NW10      30.25R WCI  16
MORRIS*        CLOUDY    27  20  77 NW9       30.26R WCI  17
ROMEOVILLE*    CLOUDY    26  18  72 NW12      30.25R WCI  16
NORTHERLY ISL    N/A     27  18  69 NW9         N/A  WCI  18
$$

LMZ740>746-172300-
SOUTHERN LAKE MICHIGAN

STATION/POSITION SKY/WX   TEMP    WIND        PRES    VSBY  WAVE
                          AIR SEA DIR/SP/G                  HT/PER
                          (F)     (DEG/KT/KT) (MB)    (MI)  (FT/S)
WAUKEGAN HARBOR            26     300/ 11/ 20   N/A
HARRISON CRIB              26     310/ 14/ 18   N/A
BURNHAM HARBOR             27     290/  8/ 13   N/A
CALUMET HARBOR             26     280/  9/ 12 1022.7R
$$

ILZ025>027-034>036-040-047-049-050-058-095>099-172300-
WEST-CENTRAL ILLINOIS

CITY           SKY/WX    TMP DP  RH WIND       PRES   REMARKS
QUINCY         CLEAR     26  18  71 NW7       30.30R WCI  18
GALESBURG*     CLEAR     28  20  74 W8        30.27S WCI  19
MACOMB*        CLEAR     28  21  76 NW6       30.30S WCI  21
JACKSONVILLE*  CLEAR     29  21  72 NW6       30.30S WCI  23
PITTSFIELD*    CLEAR     30  22  70 W6        30.31S WCI  24
$$

ILZ028>032-037-038-041>044-048-051>054-059>061-172300-
CENTRAL ILLINOIS

CITY           SKY/WX    TMP DP  RH WIND       PRES   REMARKS
PONTIAC        CLOUDY    28  21  76 NW10      30.28R WCI  18
BLOOMINGTON    MOCLDY    25  19  77 NW7       30.27S WCI  17
DECATUR        CLOUDY    24  19  81 NW8       30.29S WCI  15
PEORIA         PTCLDY    29  19  66 W6        30.28S WCI  23
LACON*         MOCLDY    27  18  69 W8        30.27S WCI  19
LINCOLN*       CLOUDY    27  20  76 CALM      30.30S
SPRINGFIELD    CLEAR     26  18  71 W5        30.30R WCI  20
TAYLORVILLE    MOCLDY    28  23  80 N7        30.29R WCI  21
$$

ILZ033-039-045-046-055>057-062-063-172300-
EAST-CENTRAL ILLINOIS

CITY           SKY/WX    TMP DP  RH WIND       PRES   REMARKS
CHAMPAIGN      CLOUDY    24  18  77 NW6       30.27F WCI  17
DANVILLE*      CLOUDY    24  20  85 W10       30.25S WCI  13
RANTOUL*       CLOUDY    26  21  80 W7        30.27S WCI  19
MATTOON        CLOUDY    25  19  78 N7        30.27S WCI  17
PARIS*         CLOUDY    25  22  89 W6        30.30R WCI  18
$$

ILZ079-100>102-172300-
SOUTHWEST ILLINOIS

CITY           SKY/WX    TMP DP  RH WIND       PRES   REMARKS
ALTON          PTCLDY    34  25  69 NW5       30.31R WCI  30
BELLEVILLE     MOCLDY    37  27  66 N5        30.29R WCI  33
CAHOKIA*       MOCLDY    38  25  59 N9        30.29R WCI  31
SPARTA*        CLOUDY    36  26  67 CALM      30.30R
$$

ILZ064>066-069>071-074>076-080>082-084>086-088>090-092>094-172300-
SOUTH-CENTRAL ILLINOIS

CITY           SKY/WX    TMP DP  RH WIND       PRES   REMARKS
CARBONDALE     PTCLDY    37  25  61 NW6       30.30R WCI  32
CAIRO*         PTCLDY    41  28  60 SW5       30.29R
EFFINGHAM*     CLOUDY    30  22  73 NW6       30.30S WCI  24
MARION         PTCLDY    37  27  65 NW6       30.30R WCI  33
MT. VERNON     PTCLDY    36  23  60 CALM      30.29S
CENTRALIA*     PTCLDY    34  26  71 NW5       30.29R WCI  30
SALEM*         PTCLDY    35  28  76 N5        30.29R WCI  31
METROPOLIS*    PTCLDY    39  28  66 CALM      30.27R
$$

ILZ067-068-072-073-078-083-087-091-172300-
SOUTHEAST ILLINOIS

CITY           SKY/WX    TMP DP  RH WIND       PRES   REMARKS
LAWRENCEVILLE  CLOUDY    31  24  75 NW6       30.30S WCI  25
FLORA*         CLOUDY    32  26  77 N6        30.29F WCI  26
FAIRFIELD*     PTCLDY    35  26  68 N5        30.27S WCI  31
HARRISBURG*    CLEAR     37  26  66 CALM      30.29S
ROBINSON*      CLOUDY    30  25  81 NW7       30.31S WCI  23
CARMI*         PTCLDY    35  29  78 NW3       30.29S
$$

ABBREVIATIONS USED IN REMARKS
   TC - TEMPERATURE IN CELSIUS
  WCI - WIND CHILL INDEX
   HX - HEAT INDEX
  VSB - VISIBILITY
$$




USA.gov is the U.S. government's official web portal to all federal, state and local government web resources and services.